Regional Weather Roundup
Issued by NWS

Home | Current Version | Previous Version | Text Only | Print | Product List | Glossary Off
Versions: 1 2 3 4 5 6 7 8 9 10 11 12 13 14 15 16 17 18 19 20 21 22 23 24 25 26 27 28 29 30 31 32 33 34 35 36 37 38 39 40 41 42 43 44 45 46 47 48 49 50

000
ASUS43 KIND 281659
RWRIN

WEATHER ROUNDUP FOR INDIANA
NATIONAL WEATHER SERVICE INDIANAPOLIS IN
100 PM EDT SAT MAR 28 2015

NOTE: "FAIR" INDICATES FEW OR NO CLOUDS BELOW 12,000 FEET WITH NO
SIGNIFICANT WEATHER AND/OR OBSTRUCTIONS TO VISIBILITY.

* - STATION DOES NOT REPORT WEATHER SUCH AS PRECIPITATION OR FOG.

+ - STATION NOT QUALITY CONTROLLED BY THE NATIONAL WEATHER SERVICE.
    USE DATA WITH CAUTION...ESPECIALLY DEWPOINT AND RELATIVE
    HUMIDITY OBSERVATIONS.

INZ001>003-010>013-019-020-281800-
NORTHWEST INDIANA

CITY           SKY/WX    TMP DP  RH WIND       PRES   REMARKS
GARY /AIRPORT/ SUNNY     30   7  37 NE14      30.37  WCI  20
KNOX *+          N/A     30 -17  12 NE5       30.33S WCI  25

$$

LMZ046-743>745-281800-
SOUTHERN LAKE MICHIGAN

STATION/POSITION TIME  TEMP WIND        PRES
                       AIR  DIR/SP/G
                 (UTC) (F)  (DEG/KT/KT) (MB)
BURNS HARBOR     1600   24   30/  7/ 10 1028.8R
MICHIGAN CITY    1600   22  360/  9/ 11   N/A

$$

INZ004-005-014>016-021>024-281800-
NORTH CENTRAL INDIANA

CITY           SKY/WX    TMP DP  RH WIND       PRES   REMARKS
ELKHART        SUNNY     28   3  34 NW3       30.33
GOSHEN         SUNNY     29   8  41 CALM      30.31S
SOUTH BEND     SUNNY     31   6  35 VRB7      30.33F WCI  24

$$

INZ006>009-017-018-025>027-281800-
NORTHEAST INDIANA

CITY           SKY/WX    TMP DP  RH WIND       PRES   REMARKS
ANGOLA *+      SUNNY     27   7  43 VRB3      30.30R
FORT WAYNE     MOSUNNY   29   7  39 VRB3      30.32S

$$

INZ028-029-035-036-043>045-051>053-281800-
WEST CENTRAL INDIANA

CITY           SKY/WX    TMP DP  RH WIND       PRES   REMARKS
CRAWFORDSVL +  SUNNY     29   7  40 N6        30.32S WCI  23
GREENCASTLE +  SUNNY     30  10  43 NE6       30.32S WCI  24
LAFAYETTE      SUNNY     31  10  41 NE5       30.34R WCI  26
TERRE HAUTE    SUNNY     33  13  43 VRB5      30.33S WCI  29

$$

INZ030>032-037>040-046>048-054>057-064-065-281800-
CENTRAL INDIANA

CITY           SKY/WX    TMP DP  RH WIND       PRES   REMARKS
COLUMBUS       SUNNY     30   7  37 N5        30.33  WCI  25
FRANKFORT +    SUNNY     30  14  50 CALM      30.33S
GREENWOOD *+   SUNNY     30   9  40 W3        30.32R
INDIANAPOLIS   MOSUNNY   32   8  36 NE6       30.30S WCI  26
-EAGLE CREEK   SUNNY     30  10  43 VRB6      30.31S WCI  24
KOKOMO *+        N/A     28  10  47 NE6       30.32S WCI  22
MT COMFORT *+  SUNNY     32   3  29 NE7       30.31S WCI  26
SHELBYVILLE    SUNNY     33  14  45 N9        30.30S WCI  25

$$

INZ033-034-041-042-049-050-058-059-281800-
EAST CENTRAL INDIANA

CITY           SKY/WX    TMP DP  RH WIND       PRES   REMARKS
MUNCIE         SUNNY     28  12  51 VRB5      30.31R WCI  23

$$

INZ060-061-067>069-081>083-085>088-281800-
SOUTHWEST INDIANA

CITY           SKY/WX    TMP DP  RH WIND       PRES   REMARKS
EVANSVILLE     SUNNY     35  17  47 VRB3      30.34S
HUNTINGBURG *+ SUNNY     34  18  51 N9        30.33S WCI  26

$$

INZ062-063-066-070>080-084-089>092-281800-
SOUTH CENTRAL AND SOUTHEAST INDIANA

CITY           SKY/WX    TMP DP  RH WIND       PRES   REMARKS
BLOOMINGTON    SUNNY     32  12  43 CALM      30.30S
SEYMOUR +      SUNNY     34  18  51 NE9       30.32S WCI  26

$$



USA.gov is the U.S. government's official web portal to all federal, state and local government web resources and services.